Le nostre stazioni meteo in Italia

Pubblicità
Il mio iltempo24.it
Besancon, Francia (7288): Temperatura & dewpoint: 14.02.2017 16:00:00 - 20.02.2017 16:00:00 (CET)Besancon, Francia (7288): Temperatura 5cm: 14.02.2017 16:00:00 - 20.02.2017 16:00:00 (CET)Besancon, Francia (7288): Temperatura -20cm & Temperatura -100cm: 14.02.2017 16:00:00 - 20.02.2017 16:00:00 (CET)Besancon, Francia (7288): velocità del vento & gusts: 14.02.2017 16:00:00 - 20.02.2017 16:00:00 (CET)Besancon, Francia (7288): direzione del vento: 14.02.2017 16:00:00 - 20.02.2017 16:00:00 (CET)Besancon, Francia (7288): reduced air pressure: 14.02.2017 16:00:00 - 20.02.2017 16:00:00 (CET)Besancon, Francia (7288): visibility: 14.02.2017 16:00:00 - 20.02.2017 16:00:00 (CET)Besancon, Francia (7288): ore di luce: 14.02.2017 16:00:00 - 20.02.2017 16:00:00 (CET)Besancon, Francia (7288): precipitazioni: 14.02.2017 16:00:00 - 20.02.2017 16:00:00 (CET)
Data & Tempo tt [°C] td [°C] tt 5cm [°C] tt -20cm [°C] tt -100cm [°C] ff [km/h] ff [kn] fx [km/h] fx [kn] dd ppp [hPa] vv [km] sd [min] rr [mm]
20.02.2017 16:00:00 10,5 3,3 12,0 5,2 6,5 13 7 25 13 OSO 1024,4 20 4 0,0
20.02.2017 15:00:00 10,3 3,1 11,8 5,1 6,5 11 6 31 17 SO 1024,9 20 30 0,0
20.02.2017 14:00:00 9,2 2,7 10,6 5,0 6,5 12 6 25 14 SO 1025,7 12 0 0,0
20.02.2017 13:00:00 8,3 2,5 8,9 5,0 6,5 5 3 15 8 SSO 1026,5 10 0 0,0
20.02.2017 12:00:00 7,4 2,3 7,9 5,0 6,5 5 3 12 7 SSO 1027,4 10 0 0,0
20.02.2017 11:00:00 6,1 1,8 6,3 4,9 6,5 4 2 9 5 SO 1027,6 8 0 0,0
20.02.2017 10:00:00 5,3 1,4 5,3 5,0 6,5 7 4 14 7 SO 1027,1 8 0 0,0
20.02.2017 09:00:00 4,3 1,5 3,6 5,0 6,5 0 0 5 3 N 1027,2 8 0 0,0
20.02.2017 08:00:00 3,6 1,1 2,3 5,0 6,5 0 0 4 2 N 1027,2 8 0 0,0
20.02.2017 07:00:00 3,3 0,7 1,9 5,0 6,5 0 0 5 3 N 1026,8 6 0 0,0
20.02.2017 06:00:00 3,0 0,7 2,6 5,1 6,5 0 0 3 2 N 1027,2 3,0 0 0,0
20.02.2017 05:00:00 2,6 0,5 2,3 5,1 6,5 0 0 6 3 N 1027,0 - 0 0,0
20.02.2017 04:00:00 2,6 1,0 0,4 5,2 6,5 3 2 6 3 SSO 1026,9 - 0 0,0
20.02.2017 03:00:00 1,4 0,4 -1,9 5,3 6,5 0 0 3 2 N 1027,3 - 0 0,0
20.02.2017 02:00:00 1,2 0,2 -1,5 5,4 6,5 0 0 4 2 N 1028,1 - 0 0,0
20.02.2017 01:00:00 0,5 -0,5 -3,2 5,4 6,5 2 1 4 2 NE 1028,1 - 0 0,0
20.02.2017 00:00:00 1,1 -0,7 -2,4 5,5 6,5 0 0 4 2 N 1027,8 - 0 0,0
19.02.2017 23:00:00 1,8 0,2 -2,6 5,5 6,5 0 0 4 2 N 1027,8 - 0 0,0
19.02.2017 22:00:00 2,1 -0,5 -1,7 5,5 6,5 0 0 5 3 N 1026,9 - 0 0,0
19.02.2017 21:00:00 3,5 -0,5 -1,4 5,5 6,5 0 0 3 2 N 1026,5 - 0 0,0
19.02.2017 20:00:00 4,5 0,1 -0,9 5,5 6,5 0 0 3 2 N 1026,4 - 0 0,0
19.02.2017 19:00:00 6,6 -0,2 0,9 5,4 6,5 0 0 7 4 N 1025,7 - 0 0,0
19.02.2017 18:00:00 9,0 0,2 6,7 5,3 6,5 4 2 16 8 OSO 1024,9 - 50 0,0
19.02.2017 17:00:00 10,6 0,6 12,3 5,1 6,5 9 5 22 12 O 1024,7 20 60 0,0
19.02.2017 16:00:00 11,2 1,7 15,0 5,0 6,5 10 6 21 11 OSO 1024,6 20 60 0,0
19.02.2017 15:00:00 10,7 2,0 13,3 4,9 6,5 9 5 23 12 OSO 1025,4 20 60 0,0
19.02.2017 14:00:00 10,4 1,5 15,6 4,8 6,5 11 6 23 13 O 1025,7 20 60 0,0
19.02.2017 13:00:00 9,5 1,4 16,0 4,8 6,5 11 6 21 12 SO 1026,1 20 60 0,0
19.02.2017 12:00:00 8,7 1,6 13,6 4,8 6,5 8 4 21 11 OSO 1026,9 20 60 0,0
19.02.2017 11:00:00 7,3 0,7 12,2 4,9 6,5 6 3 16 9 OSO 1027,1 20 60 0,0
19.02.2017 10:00:00 3,8 0,5 -0,2 5,0 6,5 2 1 7 4 SO 1027,3 20 60 0,0
19.02.2017 09:00:00 -0,9 -1,5 -5,1 5,1 6,5 2 1 4 2 NNE 1027,7 20 44 0,0
19.02.2017 08:00:00 -2,0 -2,7 -5,7 5,2 6,5 0 0 8 4 N 1027,4 20 0 0,0
19.02.2017 07:00:00 -1,6 -2,0 -6,0 5,3 6,5 5 3 8 4 NNE 1026,8 15 0 0,0
19.02.2017 06:00:00 -1,5 -1,9 -6,0 5,4 6,5 2 1 5 3 NE 1026,9 15 0 0,0
19.02.2017 05:00:00 -1,2 -1,8 -5,4 5,5 6,5 0 0 4 2 N 1026,7 - 0 0,0
19.02.2017 04:00:00 -0,3 -0,9 -5,1 5,6 6,5 3 2 4 2 NNE 1026,5 - 0 0,0
19.02.2017 03:00:00 0,3 -0,4 -5,0 5,7 6,5 0 0 3 2 N 1026,5 - 0 0,0
19.02.2017 02:00:00 0,6 -0,1 -4,2 5,8 6,5 2 1 4 2 NNE 1026,3 - 0 0,0
19.02.2017 01:00:00 1,5 0,5 -3,2 5,8 6,5 0 0 4 2 N 1026,0 - 0 0,0
19.02.2017 00:00:00 1,9 0,6 -2,8 5,9 6,5 2 1 3 2 ENE 1025,8 - 0 0,0
18.02.2017 23:00:00 2,3 0,8 -2,1 5,9 6,5 0 0 5 3 N 1025,6 - 0 0,0
18.02.2017 22:00:00 3,2 1,1 -1,6 6,0 6,5 3 1 8 4 NE 1025,5 - 0 0,0
18.02.2017 21:00:00 4,0 1,4 0,1 6,0 6,4 5 3 10 5 N 1025,5 - 0 0,0
18.02.2017 20:00:00 4,9 1,9 0,6 5,9 6,4 3 2 14 7 NE 1025,2 - 0 0,0
18.02.2017 19:00:00 5,6 1,7 1,1 5,9 6,4 4 2 16 9 NE 1025,0 - 0 0,0
18.02.2017 18:00:00 7,9 2,4 5,1 5,7 6,4 6 4 21 11 NE 1024,4 - 47 0,0
18.02.2017 17:00:00 10,0 2,8 12,1 5,6 6,4 10 5 22 12 NE 1023,9 30 60 0,0
18.02.2017 16:00:00 10,8 2,6 15,4 5,5 6,4 13 7 23 13 NNE 1023,6 - 60 0,0
18.02.2017 15:00:00 11,0 3,0 13,6 5,4 6,4 8 4 28 15 NE 1023,5 30 60 0,0
18.02.2017 14:00:00 11,0 3,3 17,1 5,3 6,4 6 3 32 17 ENE 1023,7 30 60 0,0
18.02.2017 13:00:00 9,8 4,0 16,6 5,3 6,4 9 5 31 17 NE 1024,6 25 60 0,0
18.02.2017 12:00:00 8,6 3,4 16,1 5,4 6,4 9 5 30 16 NE 1025,4 25 60 0,0
18.02.2017 11:00:00 7,9 3,0 14,7 5,4 6,4 6 4 18 10 NE 1025,6 25 60 0,0
18.02.2017 10:00:00 5,1 3,6 0,1 5,6 6,4 2 1 10 6 NE 1026,1 20 60 0,0
18.02.2017 09:00:00 0,5 0,2 -3,8 5,6 6,4 0 0 6 4 N 1027,2 20 41 0,0
18.02.2017 08:00:00 -0,1 -0,4 -4,8 5,8 6,4 0 0 8 5 N 1027,3 12 0 0,0
18.02.2017 07:00:00 -0,9 -1,2 -5,0 5,9 6,4 0 0 3 1 N 1027,3 6 0 0,0
18.02.2017 06:00:00 -0,5 -0,8 -5,0 6,0 6,4 0 0 3 1 N 1027,7 6 0 0,0
18.02.2017 05:00:00 -0,8 -1,2 -5,1 6,1 6,4 0 0 3 2 N 1027,5 - 0 0,0
18.02.2017 04:00:00 0,3 -0,3 -4,1 6,2 6,4 0 0 3 2 N 1027,5 - 0 0,0
18.02.2017 03:00:00 1,0 0,7 -3,6 6,3 6,4 0 0 4 2 N 1027,8 - 0 0,0
18.02.2017 02:00:00 0,5 -0,1 -3,7 6,5 6,4 0 0 4 2 N 1028,5 - 0 0,0
18.02.2017 01:00:00 0,8 0,2 -3,4 6,5 6,4 2 1 5 3 NE 1028,9 - 0 0,0
18.02.2017 00:00:00 1,3 0,3 -2,7 6,6 6,3 2 1 6 4 NNE 1028,9 - 0 0,0
17.02.2017 23:00:00 1,9 0,7 -2,2 6,7 6,3 0 0 4 2 N 1029,0 - 0 0,0
17.02.2017 22:00:00 2,8 1,5 -1,5 6,7 6,3 3 1 5 3 NNE 1029,3 - 0 0,0
17.02.2017 21:00:00 4,3 2,2 -0,1 6,7 6,3 3 2 6 3 NNE 1029,0 - 0 0,0
17.02.2017 20:00:00 6,0 3,0 1,2 6,7 6,3 3 2 5 3 NNE 1028,6 - 0 0,0
17.02.2017 19:00:00 7,6 2,7 4,5 6,6 6,3 0 0 2 1 N 1028,5 - 0 0,0
17.02.2017 18:00:00 8,8 2,8 7,4 6,5 6,3 2 1 10 6 N 1027,8 - 0 0,0
17.02.2017 17:00:00 9,3 3,3 9,4 6,5 6,3 4 2 12 6 N 1027,7 8 0 0,0
17.02.2017 16:00:00 9,5 4,3 10,0 6,4 6,3 6 3 13 7 NNO 1027,7 6 0 0,0
17.02.2017 15:00:00 10,0 4,6 10,9 6,3 6,3 6 3 10 6 NNO 1027,9 6 13 0,0
17.02.2017 14:00:00 10,3 4,9 10,8 6,2 6,3 0 0 14 8 N 1028,0 6 7 0,0
17.02.2017 13:00:00 9,1 6,2 10,0 6,1 6,3 6 4 16 8 N 1028,7 3,0 0 0,0
17.02.2017 12:00:00 9,0 6,8 9,2 6,1 6,3 5 3 13 7 N 1029,0 3,0 0 0,0
17.02.2017 11:00:00 8,7 6,8 9,5 6,1 6,3 4 2 11 6 NO 1029,5 2,0 1 0,0
17.02.2017 10:00:00 7,8 7,2 6,5 6,0 6,3 6 3 10 5 OSO 1029,1 2,0 1 0,0
17.02.2017 09:00:00 6,6 6,2 4,6 6,1 6,3 0 0 4 2 N 1029,1 2,0 0 0,0
17.02.2017 08:00:00 7,0 6,4 5,5 6,1 6,3 0 0 10 6 N 1028,9 3,0 0 0,0
17.02.2017 07:00:00 7,2 6,8 6,8 6,1 6,3 4 2 11 6 OSO 1028,8 4,0 0 0,0
17.02.2017 06:00:00 7,5 6,9 7,0 6,0 6,3 3 2 9 5 SO 1028,8 4,0 0 0,6
17.02.2017 05:00:00 7,6 6,7 7,0 6,1 6,3 4 2 8 4 O 1029,0 - 0 0,0
17.02.2017 04:00:00 7,8 6,3 6,9 6,1 6,3 0 0 10 5 N 1029,0 - 0 0,0
17.02.2017 03:00:00 7,1 6,2 6,0 6,1 6,3 2 1 7 4 O 1029,5 - 0 0,0
17.02.2017 02:00:00 6,7 6,3 4,3 6,1 6,3 3 1 5 3 NNE 1029,6 - 0 0,0
17.02.2017 01:00:00 6,8 6,1 3,4 6,1 6,3 0 0 3 2 N 1030,0 - 0 0,0
17.02.2017 00:00:00 7,2 6,1 3,7 6,1 6,2 0 0 6 3 N 1030,2 - 0 0,6
16.02.2017 23:00:00 6,7 4,7 3,3 6,1 6,3 0 0 3 2 N 1030,7 - 0 0,0
16.02.2017 22:00:00 6,9 5,2 3,0 6,1 6,2 0 0 3 2 N 1030,8 - 0 0,0
16.02.2017 21:00:00 7,4 5,4 3,2 6,0 6,2 0 0 2 1 N 1030,8 - 0 0,0
16.02.2017 20:00:00 8,9 6,0 3,7 6,0 6,2 0 0 0 0 N 1030,4 - 0 0,0
16.02.2017 19:00:00 10,4 6,2 5,1 5,9 6,2 0 0 6 3 N 1030,2 - 0 0,0
16.02.2017 18:00:00 11,9 6,4 9,0 5,7 6,2 3 2 8 4 O 1030,0 - 0 0,0
16.02.2017 17:00:00 13,1 6,4 12,9 5,6 6,2 3 2 13 7 O 1029,8 15 0 0,0
16.02.2017 16:00:00 14,0 6,1 14,8 5,4 6,3 8 4 16 9 ONO 1029,9 15 20 0,0
16.02.2017 15:00:00 15,0 6,0 18,1 5,2 6,2 10 5 17 9 O 1030,0 15 60 0,0
16.02.2017 14:00:00 15,1 6,1 20,3 5,1 6,3 7 4 20 11 SO 1030,5 15 60 0,0
16.02.2017 13:00:00 13,9 5,8 19,7 5,0 6,2 10 5 20 11 SO 1031,5 15 60 0,0
16.02.2017 12:00:00 13,1 5,7 18,4 5,0 6,2 5 3 18 10 SO 1032,4 15 60 0,0
16.02.2017 11:00:00 11,5 4,9 17,9 5,1 6,2 4 2 8 5 S 1033,2 15 60 0,0
16.02.2017 10:00:00 7,2 4,3 2,7 5,2 6,2 0 0 2 1 N 1034,0 15 60 0,0
16.02.2017 09:00:00 3,1 2,8 -1,6 5,3 6,2 0 0 5 3 N 1034,7 15 33 0,0
16.02.2017 08:00:00 1,8 1,2 -2,2 5,3 6,2 2 1 5 3 NNE 1034,7 15 0 0,0
16.02.2017 07:00:00 1,6 1,0 -2,3 5,4 6,2 2 1 4 2 NE 1034,8 15 0 0,0
16.02.2017 06:00:00 1,8 1,1 -1,8 5,5 6,2 0 0 3 1 N 1034,9 15 0 0,0
16.02.2017 05:00:00 2,7 2,0 -1,5 5,5 6,2 2 1 6 4 NE 1035,0 - 0 0,0
16.02.2017 04:00:00 3,0 2,1 -1,2 5,6 6,2 2 1 7 4 NE 1035,1 - 0 0,0
16.02.2017 03:00:00 3,3 2,7 -1,1 5,7 6,2 0 0 4 2 N 1035,3 - 0 0,0
16.02.2017 02:00:00 3,3 2,3 -0,6 5,7 6,2 3 2 8 4 NE 1035,1 - 0 0,0
16.02.2017 01:00:00 3,7 2,2 -0,4 5,8 6,2 0 0 6 3 N 1035,6 - 0 0,0
16.02.2017 00:00:00 4,3 2,6 0,1 5,8 6,2 0 0 9 5 N 1035,4 - 0 0,0
15.02.2017 23:00:00 5,3 3,0 0,8 5,8 6,2 4 2 8 4 NE 1035,4 - 0 0,0
15.02.2017 22:00:00 5,9 3,4 1,5 5,8 6,2 2 1 4 2 NNE 1035,4 - 0 0,0
15.02.2017 21:00:00 7,9 3,9 2,5 5,8 6,2 3 2 5 3 NE 1035,0 - 0 0,0
15.02.2017 20:00:00 8,6 4,4 3,6 5,7 6,2 2 1 5 3 N 1034,6 - 0 0,0
15.02.2017 19:00:00 10,7 4,6 4,7 5,6 6,2 0 0 6 3 N 1034,5 - 0 0,0
15.02.2017 18:00:00 13,2 4,3 9,1 5,4 6,2 3 1 10 5 NO 1033,8 - 26 0,0
15.02.2017 17:00:00 15,7 3,8 14,6 5,3 6,2 5 3 23 12 SO 1033,3 25 45 0,0
15.02.2017 16:00:00 17,0 4,0 20,1 5,1 6,2 5 3 21 12 SO 1033,3 30 60 0,0
15.02.2017 15:00:00 15,6 4,9 17,1 5,0 6,2 4 2 16 9 SO 1033,8 25 42 0,0
15.02.2017 14:00:00 15,4 4,1 17,3 4,9 6,2 8 4 18 10 OSO 1034,1 25 56 0,0
15.02.2017 13:00:00 14,2 3,9 18,6 4,8 6,2 11 6 21 11 SO 1034,7 25 60 0,0
15.02.2017 12:00:00 13,3 3,6 18,2 4,8 6,2 4 2 11 6 S 1035,3 25 60 0,0
15.02.2017 11:00:00 10,0 2,8 15,4 4,9 6,2 4 2 8 4 SO 1035,8 25 60 0,0
15.02.2017 10:00:00 6,9 3,0 0,4 4,9 6,2 0 0 5 3 N 1035,9 20 60 0,0
15.02.2017 09:00:00 1,5 0,8 -2,7 5,1 6,2 3 2 5 3 NNE 1036,2 20 29 0,0
15.02.2017 08:00:00 0,8 0,1 -3,2 5,1 6,2 3 2 6 3 NNE 1035,6 15 0 0,0
15.02.2017 07:00:00 0,8 0,1 -3,1 5,2 6,2 0 0 5 3 N 1035,1 - 0 0,0
15.02.2017 06:00:00 1,1 0,2 -3,1 5,3 6,2 3 2 6 3 NNE 1034,7 10 0 0,0
15.02.2017 05:00:00 1,2 0,5 -2,7 5,4 6,2 4 2 6 3 NNE 1034,6 - 0 0,0
15.02.2017 04:00:00 1,6 0,9 -2,4 5,4 6,2 4 2 6 4 NNE 1034,5 - 0 0,0
15.02.2017 03:00:00 1,7 0,8 -2,3 5,5 6,2 3 1 4 2 NNE 1034,2 - 0 0,0
15.02.2017 02:00:00 2,0 1,0 -1,8 5,5 6,2 0 0 5 3 N 1034,2 - 0 0,0
15.02.2017 01:00:00 2,4 1,2 -1,5 5,6 6,2 2 1 4 2 NE 1033,8 - 0 0,0
15.02.2017 00:00:00 2,9 1,3 -0,8 5,7 6,2 0 0 4 2 N 1033,6 - 0 0,0
14.02.2017 23:00:00 3,5 1,5 -0,5 5,7 6,2 2 1 6 3 NNE 1033,0 - 0 0,0
14.02.2017 22:00:00 3,9 1,9 -0,7 5,7 6,2 3 2 4 2 NNE 1032,5 - 0 0,0
14.02.2017 21:00:00 4,5 1,9 0,4 5,7 6,2 2 1 4 2 NNE 1031,9 - 0 0,0
14.02.2017 20:00:00 6,2 2,5 1,0 5,6 6,2 0 0 3 2 N 1031,4 - 0 0,0
14.02.2017 19:00:00 7,7 2,8 2,2 5,5 6,2 2 1 3 2 NE 1030,9 - 0 0,0
14.02.2017 18:00:00 10,1 2,7 4,5 5,4 6,2 2 1 8 4 NO 1029,8 - 25 0,0
14.02.2017 17:00:00 13,0 2,8 14,1 5,2 6,1 4 2 17 9 OSO 1028,7 15 60 0,0
14.02.2017 16:00:00 14,1 3,5 17,2 5,0 6,1 7 4 18 10 OSO 1028,1 15 60 0,0

tt = Temperatura
td = dewpoint
tt 5cm = Temperatura 5cm
tt -20cm = Temperatura -20cm
tt -100cm = Temperatura -100cm
ff = velocità del vento
fx = gusts
dd = direzione del vento
ppp = reduced air pressure
vv = visibility
sd = ore di luce
rr = precipitazioni

Stazioni seguenti

WeatherPro
AMSI
MeteoEarth